Theta_e
316 316 316 316 316 316 315 315 315 316 316 316 316 317 317 317 317 317 318 318 317 316 317 318 320 318 314 307 307 320 350 349 333 320 312 311 311 316 315 323 326 323 327 329 329 327 327
316 316 316 315 315 315 315 315 315 316 316 316 317 317 317 316 317 317 317 317 316 315 316 320 322 318 309 301 321 321 331 332 325 315 311 312 314 319 319 323 322 325 326 328 328 327 327
315 315 315 315 315 315 315 316 316 316 316 316 316 316 316 316 316 316 316 315 315 315 316 321 323 317 308 303 321 322 326 321 317 315 309 314 318 315 320 318 327 325 321 326 327 326 325
315 315 315 315 316 316 316 316 316 316 316 316 316 316 316 316 315 315 314 313 314 316 317 323 322 316 305 319 319 317 320 321 318 317 314 315 318 313 314 321 322 319 319 313 323 324 325
315 315 316 316 316 316 316 316 316 316 316 316 316 315 315 315 314 313 312 312 317 318 320 321 316 312 306 326 318 321 320 316 319 317 318 319 315 310 311 311 310 313 308 309 315 323 323
314 314 315 315 315 316 316 316 316 316 315 315 315 314 314 314 313 312 311 313 319 317 321 321 320 308 313 311 318 321 321 319 314 315 314 313 310 305 306 305 300 305 306 309 311 319 319
314 314 315 315 315 316 316 315 315 315 315 315 314 313 313 313 312 310 308 303 299 303 302 296 299 303 303 317 318 319 320 318 313 312 306 311 304 301 303 307 309 312 311 308 312 319 315
314 315 315 315 315 315 315 315 315 315 315 314 313 313 312 312 310 310 308 300 299 300 294 301 302 302 306 308 305 312 319 311 306 305 309 307 303 308 309 309 308 310 309 309 311 315 313
314 314 315 315 315 315 315 315 314 314 314 313 313 312 311 310 310 309 305 302 306 304 293 297 300 301 301 304 302 305 312 312 305 305 308 305 308 314 311 307 306 307 307 308 308 311 314
314 315 315 315 315 315 314 314 314 314 313 313 313 312 310 308 306 305 305 306 306 305 288 294 298 303 304 304 300 310 313 311 307 304 309 308 314 312 310 307 308 303 311 312 312 308 301
315 315 315 315 315 314 314 314 314 313 312 312 312 311 309 308 303 303 307 307 306 302 281 302 301 311 305 299 302 305 312 310 304 305 309 307 310 310 307 309 311 307 311 311 311 307 302
315 315 315 315 315 314 314 313 313 312 312 311 311 309 309 307 306 308 308 306 302 287 283 295 299 297 296 299 302 306 306 310 310 306 309 309 317 313 311 313 313 314 308 305 307 304 296
314 315 315 315 314 314 313 313 313 312 311 311 309 307 306 309 302 309 308 301 287 282 296 292 292 295 294 296 300 301 301 300 300 296 299 305 308 314 312 308 311 309 300 291 291 294 293
315 315 315 314 314 314 313 313 313 312 311 309 307 306 310 311 311 310 302 293 283 291 291 295 293 293 291 294 294 295 295 297 304 302 297 297 297 308 313 306 303 304 301 290 285 288 292
315 315 315 314 314 314 314 314 313 312 311 309 307 308 309 312 313 307 296 286 287 290 293 291 291 288 288 292 292 292 292 296 303 306 296 296 298 311 314 312 308 302 298 300 292 294 290
315 315 315 314 314 314 314 314 313 312 311 308 304 305 307 311 309 302 293 289 291 295 293 292 286 288 285 289 289 290 291 298 300 302 303 300 293 306 310 313 311 305 304 295 296 287 287
314 314 314 314 314 314 314 314 313 312 310 308 304 301 307 310 306 298 289 291 293 296 295 291 289 288 287 289 290 288 290 295 300 299 301 299 297 298 305 304 303 301 300 300 295 294 288
314 314 314 314 314 314 314 313 312 310 308 305 302 295 310 310 295 295 290 293 294 293 296 293 293 291 288 289 288 288 289 294 300 299 291 299 296 294 297 306 310 306 302 300 296 291 295
313 314 314 313 313 314 314 313 312 310 309 304 298 300 308 306 289 290 294 292 294 292 293 292 290 291 291 289 286 290 292 298 299 296 295 299 293 292 295 299 304 303 304 303 299 298 295
313 313 313 313 313 313 314 313 312 311 310 305 300 292 299 300 298 293 291 291 290 296 294 294 293 293 290 289 291 289 290 296 297 297 306 302 295 293 292 296 300 300 304 304 301 297 297
312 312 312 313 313 313 314 313 312 311 310 305 299 294 296 290 292 292 293 292 290 290 294 294 291 291 289 285 287 288 291 292 295 299 297 294 290 297 301 304 305 306 304 304 301 301 298
313 313 312 312 312 313 313 313 312 311 310 303 295 294 295 291 293 293 293 291 291 291 292 289 289 291 290 287 287 286 289 289 290 294 291 293 290 296 298 304 306 305 307 306 305 304 303
312 312 312 312 313 313 313 313 312 311 309 301 303 302 295 291 291 290 290 292 292 294 295 295 293 290 288 291 294 294 294 293 292 291 289 290 291 291 291 301 302 298 304 306 305 307 305
312 312 312 312 312 313 313 313 311 312 310 307 305 299 291 287 289 290 291 293 293 293 291 295 296 291 295 299 297 296 294 293 293 293 293 289 290 291 291 296 289 301 309 311 307 308 308
312 312 312 312 312 312 311 311 312 312 312 307 308 298 293 287 291 291 292 292 295 295 293 294 296 298 299 295 289 286 286 288 291 293 293 295 291 288 290 294 298 304 307 306 304 307 313
312 312 312 312 311 311 311 312 312 313 312 310 308 304 297 289 289 294 292 292 290 290 293 294 299 300 297 291 287 282 281 286 287 290 295 295 295 291 292 291 292 300 305 308 309 301 311
312 312 312 311 311 311 312 312 313 313 312 310 308 306 299 291 293 295 291 291 295 294 290 293 294 294 296 289 286 284 284 291 286 287 288 289 291 288 290 290 296 301 305 312 299 301 308
311 311 311 311 311 311 312 312 312 313 313 311 307 308 300 293 295 298 299 295 294 294 290 294 292 293 292 287 287 287 287 289 288 291 291 289 289 289 289 290 289 302 304 298 307 309 308
311 311 311 311 311 312 312 312 312 313 313 312 305 309 307 298 297 302 302 303 301 300 296 297 293 293 294 290 290 289 286 290 288 285 294 288 292 290 292 292 300 302 301 305 306 304 305
Wind_Speed
21 21 22 22 21 21 22 23 23 23 24 25 25 25 25 26 27 27 25 24 22 21 19 16 11 6 4 6 16 7 2 16 19 18 18 17 17 15 19 17 18 18 12 16 11 11 20
20 21 21 21 22 22 22 23 24 23 24 24 25 26 26 27 28 28 26 24 21 20 19 13 6 4 4 10 9 15 8 15 17 20 17 16 12 13 11 19 16 15 15 14 14 17 9
20 21 21 22 22 22 22 23 23 24 24 25 26 27 28 28 30 30 28 25 23 19 18 13 5 8 9 21 8 11 18 11 15 21 18 18 18 14 16 12 20 18 11 14 19 18 11
20 21 21 21 21 21 22 23 23 23 24 25 26 27 28 29 31 31 30 30 27 22 15 9 7 8 12 12 18 20 12 12 14 16 16 12 17 15 17 11 18 17 16 16 22 20 20
19 19 20 20 21 22 22 23 24 24 25 26 27 29 29 30 32 30 30 33 28 8 6 5 8 6 13 12 8 13 12 16 18 11 16 17 17 17 16 15 13 10 12 9 13 15 9
19 20 20 21 21 21 22 23 24 25 26 26 27 29 30 31 32 31 31 29 11 2 5 9 7 4 9 6 8 12 13 12 15 13 15 16 10 14 14 11 16 10 7 11 13 15 12
18 19 20 21 21 20 21 23 24 25 26 26 27 28 31 30 31 32 16 9 9 3 7 11 18 24 41 14 20 14 14 17 14 15 17 17 11 21 21 18 11 11 17 11 12 15 11
19 19 20 20 20 20 22 23 24 25 26 26 26 27 30 32 32 33 6 9 10 12 23 19 28 28 28 19 17 15 15 16 18 20 17 12 24 18 14 15 19 18 21 17 15 17 10
19 19 19 19 19 21 22 23 23 24 24 25 26 27 28 32 34 13 16 14 14 13 10 21 16 15 19 13 19 29 12 21 16 22 24 23 13 19 19 20 23 22 18 17 14 13 17
17 17 18 20 21 21 22 22 23 24 25 26 26 26 27 29 10 11 9 17 14 12 5 12 5 5 0 10 11 26 23 20 18 23 23 25 20 24 26 23 21 19 18 21 20 14 8
17 18 19 20 21 21 22 22 24 26 28 29 29 29 27 17 7 6 12 17 15 8 6 13 18 9 35 9 6 14 26 18 26 21 21 25 24 25 26 26 21 14 17 21 22 15 8
17 18 19 20 21 22 23 24 25 27 29 31 31 31 26 9 3 12 15 18 10 2 7 10 20 25 30 22 18 22 9 17 15 22 23 24 14 23 24 20 17 15 10 11 16 13 13
17 18 19 19 20 21 22 24 26 28 30 32 32 31 20 6 5 10 13 9 4 4 12 12 24 23 23 22 19 24 19 19 19 19 25 18 28 22 18 20 20 18 12 7 9 13 13
17 17 18 19 19 20 22 24 26 27 30 34 37 34 8 8 8 12 7 9 6 8 13 19 17 21 16 21 23 29 30 13 22 22 5 20 21 31 23 22 16 22 21 7 9 8 10
16 17 18 19 19 19 21 22 26 28 30 34 34 6 6 9 11 6 5 5 6 9 13 16 23 15 22 22 17 26 22 13 17 21 23 14 28 14 28 15 18 17 20 11 3 7 2
17 17 17 18 19 19 20 20 22 28 30 36 12 5 6 6 5 3 3 11 16 14 15 15 18 14 20 13 13 16 15 14 25 26 26 27 12 18 20 24 21 20 11 12 9 9 9
16 17 17 18 18 19 20 20 20 23 27 31 6 8 1 8 3 4 8 7 14 14 16 12 13 20 16 8 13 15 11 28 23 30 30 19 12 28 14 26 28 12 12 15 6 6 7
16 16 16 17 17 19 20 20 19 20 22 12 6 6 10 9 8 5 9 16 15 15 8 9 9 11 16 16 3 8 15 9 26 26 27 17 10 16 29 17 26 18 19 13 12 13 8
16 16 17 16 17 18 18 19 18 19 18 8 7 6 7 12 5 6 12 15 16 11 10 8 8 12 14 8 5 9 11 11 14 24 15 17 8 7 19 13 18 29 20 19 8 6 14
17 17 18 17 17 17 17 17 16 16 17 7 5 5 5 6 9 14 13 14 15 8 4 3 8 4 14 11 3 2 8 9 19 22 30 24 12 14 12 15 6 12 24 19 13 13 15
18 20 19 18 18 17 16 16 14 15 16 5 3 4 6 7 9 17 17 13 14 16 5 8 5 5 8 9 12 5 10 15 17 15 19 16 9 14 15 15 14 18 27 23 22 16 16
18 19 19 19 19 17 16 15 13 12 16 3 4 2 4 8 12 14 15 10 15 19 20 13 11 9 6 9 7 10 12 9 6 13 18 19 9 17 7 11 10 8 12 26 23 20 16
19 19 19 19 19 18 17 15 13 11 7 3 2 3 1 3 8 9 7 13 20 17 11 21 17 14 13 10 14 10 17 11 13 9 13 20 12 11 6 3 6 6 9 8 20 19 16
19 19 20 21 21 19 17 15 14 11 5 4 3 2 2 4 5 10 21 19 15 17 19 20 19 3 7 24 14 13 15 11 14 12 6 23 17 5 6 6 1 7 8 12 12 8 19
20 20 21 22 21 21 20 18 15 11 10 4 2 3 3 4 6 11 14 14 13 14 13 15 14 8 8 8 5 12 10 11 16 14 14 16 13 6 4 2 5 5 10 13 4 15 27
21 20 21 22 21 22 20 18 16 13 12 5 4 3 3 2 6 10 10 11 10 8 11 12 15 16 13 6 5 4 3 8 1 7 17 12 11 2 6 4 2 7 24 28 9 12 20
21 21 21 21 22 20 20 18 16 14 12 4 2 5 2 3 5 4 4 4 4 4 6 10 12 8 9 2 2 3 3 6 3 9 9 10 2 6 7 3 6 21 27 16 10 5 12
21 21 21 20 20 19 19 17 16 14 12 5 2 8 4 4 5 6 6 5 7 4 3 7 8 6 4 6 4 3 4 5 6 4 10 4 4 4 4 3 5 16 14 22 2 6 10
21 21 20 19 19 18 18 16 14 13 10 4 3 4 5 1 3 4 10 12 11 13 5 1 5 9 3 4 4 5 6 3 9 7 14 8 1 4 8 5 9 16 20 19 11 6 9
Wind_Direction
22 18 16 13 10 6 2 359 355 351 348 345 341 337 334 332 328 325 322 320 317 315 310 308 306 279 251 214 246 284 69 160 172 181 199 208 226 212 214 222 231 229 187 234 323 277 172
20 16 13 10 6 3 359 355 352 348 344 341 338 337 334 331 326 323 322 320 316 311 307 299 282 202 238 247 247 213 135 149 169 187 201 208 227 223 231 233 237 244 202 150 239 255 198
18 14 10 7 3 359 354 351 348 345 342 340 338 336 333 331 328 325 323 319 312 302 297 285 253 208 249 238 244 308 157 179 178 188 202 215 230 241 224 249 243 257 236 202 207 244 198
16 12 8 4 359 354 350 349 346 344 342 339 337 334 333 331 327 325 324 320 309 296 280 280 205 206 251 248 239 262 242 173 193 190 215 221 235 249 257 255 260 248 254 223 218 225 236
14 9 5 3 358 352 350 348 347 345 343 340 338 334 333 331 327 326 324 320 318 301 235 164 161 225 262 301 216 235 220 191 180 203 202 225 223 233 249 236 255 254 249 229 249 226 224
12 7 4 1 357 352 350 348 346 344 343 341 338 334 332 330 326 324 325 312 308 160 207 183 247 299 259 253 224 211 210 239 185 199 187 217 224 229 233 222 222 228 237 250 234 242 204
8 5 2 359 356 353 351 349 346 343 341 339 337 334 329 329 324 318 335 328 357 286 335 266 262 278 293 292 324 187 203 211 221 196 202 208 212 223 214 227 237 230 239 226 247 234 191
5 2 359 356 353 352 350 347 343 339 337 336 336 334 330 329 323 314 305 355 353 289 299 261 250 253 255 265 284 290 193 194 215 202 199 203 226 223 210 218 235 233 242 248 237 241 196
360 357 354 353 353 351 347 339 335 336 334 334 335 336 336 334 320 312 331 352 328 322 293 295 251 248 237 212 233 254 237 204 212 208 202 208 216 218 216 218 221 232 236 245 243 251 240
356 355 355 354 350 345 339 337 339 338 337 336 335 337 336 341 330 335 317 332 329 319 307 279 201 309 115 224 256 227 244 208 223 219 212 223 225 200 225 221 219 221 233 248 254 259 250
354 356 352 348 345 342 340 341 344 341 339 337 335 336 337 332 284 291 295 318 317 311 316 17 6 7 345 172 260 206 221 229 214 217 209 215 194 225 210 224 218 225 220 233 249 259 271
353 351 347 345 344 342 344 344 344 341 338 335 333 328 336 323 240 247 302 313 306 229 251 324 10 353 347 339 317 287 232 234 218 230 235 231 213 220 227 213 224 227 229 244 244 248 254
348 345 344 342 341 342 344 343 343 340 336 331 327 323 323 286 253 304 298 319 308 229 333 357 359 346 330 341 343 358 303 218 209 217 231 228 228 219 226 219 204 215 207 228 231 229 234
343 342 341 340 338 342 344 343 341 338 333 332 327 316 273 227 248 281 320 310 262 295 344 342 349 329 323 351 340 346 337 279 227 221 211 228 229 216 209 224 199 207 215 179 208 211 240
337 338 338 336 336 342 342 342 338 337 336 331 324 316 279 279 227 259 310 289 309 347 358 347 337 343 335 336 353 341 331 315 307 212 227 216 243 196 229 210 212 206 216 210 212 205 203
333 336 334 333 336 338 339 341 340 336 337 328 320 287 272 270 291 286 278 261 311 5 357 355 340 327 318 351 337 339 319 305 344 350 339 246 277 226 220 224 238 215 174 212 213 194 221
327 330 330 331 335 334 337 341 340 337 336 324 298 315 83 323 319 290 263 308 330 20 5 341 336 318 315 10 358 320 291 313 1 339 333 318 246 249 235 204 216 203 209 200 178 182 182
323 324 325 332 333 331 332 337 339 336 339 336 308 306 318 327 319 342 0 353 349 348 10 11 314 336 345 332 295 310 287 289 336 326 320 304 289 235 239 247 209 221 211 194 201 227 233
321 322 324 329 328 327 329 332 336 336 347 320 305 275 1 352 351 359 339 335 330 355 20 3 308 324 316 345 341 344 323 298 330 314 327 329 327 271 250 257 257 212 199 211 180 151 230
318 319 321 326 323 324 327 329 331 332 332 333 291 314 351 315 7 356 337 318 326 339 1 247 278 325 310 327 134 256 277 303 315 310 313 311 251 248 257 233 231 222 206 201 198 204 228
316 316 319 323 320 321 323 324 329 327 326 316 326 354 20 312 333 324 310 316 330 314 213 265 253 318 3 312 317 333 322 318 310 328 318 308 271 266 269 268 278 261 197 193 206 209 203
314 312 317 319 317 316 318 321 325 323 324 237 326 3 356 291 302 300 309 327 312 334 332 326 321 309 283 239 171 286 298 309 306 321 318 304 284 320 294 277 289 309 277 195 200 212 223
311 311 315 314 314 315 317 317 318 317 336 286 28 51 107 276 303 304 289 325 325 327 323 322 306 319 304 304 315 285 270 259 255 238 299 291 321 329 298 17 339 309 250 258 197 199 208
308 309 311 313 315 315 314 313 316 308 278 276 295 115 188 259 267 295 302 304 311 309 311 303 305 5 286 292 302 309 284 279 248 239 204 289 299 284 279 27 187 254 335 320 206 189 210
307 308 309 312 314 313 313 312 310 298 282 259 236 165 174 258 244 286 309 317 320 319 301 294 314 310 233 253 297 280 291 264 243 223 198 251 279 292 315 287 351 317 359 338 106 43 14
306 308 309 311 313 314 312 311 304 297 283 260 240 149 164 267 223 255 317 285 295 294 295 322 349 331 317 336 327 278 294 314 39 188 187 223 266 231 348 275 216 34 335 323 300 56 16
307 309 310 311 314 314 309 307 306 299 289 263 265 164 157 223 258 247 238 278 297 313 297 308 349 331 73 329 294 290 298 307 300 8 168 192 201 279 258 292 328 342 348 13 66 65 23
309 312 310 310 312 308 306 306 302 296 291 273 253 178 173 214 278 261 285 285 288 255 277 330 319 1 346 8 9 322 0 314 354 277 340 100 208 199 262 308 16 346 359 48 119 59 59
312 312 313 311 310 309 309 306 303 299 296 282 242 184 195 190 293 333 273 259 247 245 282 25 307 300 331 353 358 326 318 344 337 11 7 23 339 270 347 339 48 9 352 15 17 24 23